User: anonymous   Login
Location: Turtle Rock Observatory
(36.6913°N, 81.9708°W)
Time: 14:31:20
(UTC-04:00)
Language:

Lacrosse 5 rocket - Orbit

View from above orbital plane
View from above orbital plane
View from above satellite
View from above satellite

Ground track
Ground track

The orbit data is extracted from the following two-line orbital elements,

1 28647U 05016B   18135.90393226 0.00000000  00000-0  00000-0 0    04
2 28647  56.9971 104.1319 0126144 203.8972 156.1028 15.05392242    00
Epoch (UTC): 15 May 2018 21:41:39
Eccentricity: 0.0126144
inclination: 56.9971°
perigee height: 463 km
apogee height: 638 km
right ascension of ascending node: 104.1319°
argument of perigee: 203.8972°
revolutions per day: 15.05392242
mean anomaly at epoch: 156.1028°
orbit number at epoch: 0

The dashed part of the orbit path shows where the satellite is in the earth's shadow,  

DLR